カタログに戻る

SL-12 R/B(2)

運用中HEO
NORAD 25788·ROCKET BODY·🇷🇺 Russia

打ち上げ Jun 18, 1999 から Baikonur Cosmodrome

Loading…

次のパス (今後24時間)

TLE

最新Source: Space-Track

元期: Sep 13, 2026, 17:49 UTC

1 25788U 99033D   26256.74285457 -.00000150  00000-0  00000-0 0  9994
2 25788  17.5058 358.9802 5075960 110.2566 319.1695  1.85811743184775

AllMySatでSL-12 R/B(2)をリアルタイム追跡

Download on the App Store